Tracking 29892 objects as of 21-Nov-2024
HD Live streaming from Space Station
objects crossing your sky now

USA 40 R/B DEB

Track USA 40 R/B DEB now!
10-day predictions


NORAD ID: 44523
Int'l Code: 1989-061BW
Perigee: 533.3 km
Apogee: 6,866.2 km
Inclination: 57.0 °
Period: 167.6 minutes
Semi major axis: 10070 km
RCS: Unknown
Launch date: August 8, 1989
Source: United States (US)
Launch site: AIR FORCE EASTERN TEST RANGE (AFETR)

Note: This is SATELLITE DEBRIS
Your satellite tracking list
Your tracking list is empty




NASA's NSSDC Master Catalog

Two Line Element Set (TLE):
1 44523U 89061BW  24324.98003175  .00007382  00000-0  65101-2 0  9995
2 44523  57.0166 272.0500 3144201 109.3984 286.9675  8.59028695  8025
Source of the keplerian elements: AFSPC